Change the Weather History Date:

Thursday, February 14, 2013

  Actual Average Record
Temperature  
Mean Temperature 27 °F 20 °F  
Max Temperature 36 °F 28 °F 58 °F (1954)
Min Temperature 17 °F 12 °F -23 °F (1951)
Degree Days  
Heating Degree Days 38 45  
Month to date heating degree days 618 657  
Since 1 July heating degree days 4801 5265  
Cooling Degree Days 0 0  
Month to date cooling degree days 0 0  
Year to date cooling degree days 0 0  
Moisture  
Dew Point 23 °F    
Average Humidity 70    
Maximum Humidity 89    
Minimum Humidity 50    
Precipitation  
Precipitation 0.04 in 0.02 in 0.80 in (1911)
Month to date precipitation 0.77 0.37  
Year to date precipitation 1.55 1.23  
Snow  
Snow 0.60 in 0.30 in 5.50 in (1950)
Month to date snowfall 7.4 4.4  
Since 1 July snowfall 23.8 35.8  
Snow Depth 3.00 in    
Sea Level Pressure  
Sea Level Pressure 29.84 in    
Wind  
Wind Speed 15 mph (NW)    
Max Wind Speed 28 mph    
Max Gust Speed 32 mph    
Visibility 6 miles    
Events Snow    
T = Trace of Precipitation, MM = Missing Value Source: NWS Daily Summary

Daily Weather History Graph

Daily Weather History Graph

Search for Another Location

Airport or City:

Trip Planner

Search our weather history database for the weather conditions in past years. The results will help you decide how hot, cold, wet, or windy it might be!

Date:

Astronomy

Feb. 14, 2013 Rise Set
Actual Time 7:10 AM CST 5:38 PM CST
Civil Twilight 6:40 AM CST 6:08 PM CST
Nautical Twilight 6:06 AM CST 6:42 PM CST
Astronomical Twilight 5:33 AM CST 7:15 PM CST
Moon 9:00 AM CST (2/14) 10:54 PM CST (2/14)
Length of Visible Light 11h 28m
Length of Day
10h 28m
Waxing Crescent, 22% of the Moon is Illuminated
Feb 14
Waxing Crescent
Feb 17
First Quarter
Feb 25
Full
Mar 4
Last Quarter
Mar 11
New

Hourly Weather History & Observations

Time (CST) Temp. Windchill Dew Point Humidity Pressure Visibility Wind Dir Wind Speed Gust Speed Precip Events Conditions
12:54 AM 35.1 °F 26.9 °F 30.0 °F 82% 29.60 in 10.0 mi West 11.5 mph - N/A   Overcast
1:08 AM 35.6 °F 26.6 °F 30.2 °F 81% 29.56 in 8.0 mi West 13.8 mph - 0.00 in   Overcast
1:32 AM 33.8 °F 25.8 °F 30.2 °F 87% 29.55 in 10.0 mi West 10.4 mph - 0.00 in   Overcast
1:54 AM 34.0 °F 25.0 °F 30.9 °F 89% 29.60 in 8.0 mi West 12.7 mph - 0.00 in   Overcast
2:54 AM 34.0 °F 25.0 °F 30.9 °F 89% 29.60 in 3.0 mi WNW 12.7 mph - 0.00 in   Overcast
3:15 AM 33.8 °F 23.9 °F 30.2 °F 87% 29.57 in 2.5 mi WNW 15.0 mph - 0.00 in   Overcast
3:23 AM 33.8 °F 24.3 °F 30.2 °F 87% 29.57 in 3.0 mi WNW 13.8 mph - 0.01 in Snow Light Snow
3:34 AM 33.8 °F 23.9 °F 30.2 °F 87% 29.57 in 2.5 mi NW 15.0 mph - 0.01 in Snow Light Snow
3:54 AM 33.1 °F 23.0 °F 30.0 °F 89% 29.62 in 2.0 mi NW 15.0 mph - 0.01 in Snow Light Snow
4:01 AM 33.8 °F 23.2 °F 30.2 °F 87% 29.58 in 1.8 mi NW 17.3 mph - 0.01 in Snow Light Snow
4:13 AM 33.8 °F 22.2 °F 30.2 °F 87% 29.59 in 1.0 mi NNW 20.7 mph 26.5 mph 0.01 in Snow Light Snow
4:54 AM 32.0 °F 20.1 °F 28.9 °F 88% 29.67 in 1.2 mi North 19.6 mph 26.5 mph 0.02 in Snow Light Snow
5:01 AM 32.0 °F 19.8 °F 28.4 °F 87% 29.64 in 1.8 mi North 20.7 mph 25.3 mph 0.00 in Snow Light Snow
5:54 AM 30.9 °F 18.4 °F 27.0 °F 85% 29.73 in 2.0 mi NNW 20.7 mph 26.5 mph 0.00 in Snow Light Snow
6:22 AM 30.2 °F 18.1 °F 26.6 °F 86% 29.70 in 2.5 mi NNW 18.4 mph - 0.00 in Snow Light Snow
6:34 AM 30.2 °F 19.3 °F 26.6 °F 86% 29.72 in 6.0 mi NNW 15.0 mph 20.7 mph 0.00 in Snow Light Snow
6:54 AM 30.9 °F 20.2 °F 26.1 °F 82% 29.77 in 7.0 mi NNW 15.0 mph - 0.01 in   Overcast
7:54 AM 28.9 °F 16.1 °F 24.1 °F 82% 29.81 in 10.0 mi NNW 19.6 mph - 0.00 in   Overcast
8:54 AM 28.9 °F 18.2 °F 24.1 °F 82% 29.83 in 9.0 mi NNW 13.8 mph - N/A   Overcast
9:54 AM 28.9 °F 18.2 °F 24.1 °F 82% 29.85 in 9.0 mi NW 13.8 mph - N/A   Mostly Cloudy
10:02 AM 30.2 °F 20.2 °F 24.8 °F 80% 29.81 in 9.0 mi NW 12.7 mph - N/A   Scattered Clouds
10:54 AM 32.0 °F 23.6 °F 25.0 °F 75% 29.87 in 10.0 mi NW 10.4 mph - N/A   Mostly Cloudy
11:54 AM 30.9 °F 22.2 °F 25.0 °F 79% 29.88 in 10.0 mi WNW 10.4 mph - N/A   Mostly Cloudy
12:14 PM 30.2 °F 20.8 °F 24.8 °F 80% 29.84 in 9.0 mi West 11.5 mph - N/A   Overcast
12:47 PM 32.0 °F 23.0 °F 24.8 °F 75% 29.84 in 10.0 mi WNW 11.5 mph - N/A   Mostly Cloudy
12:54 PM 32.0 °F 23.0 °F 25.0 °F 75% 29.89 in 10.0 mi NW 11.5 mph - N/A   Mostly Cloudy
1:54 PM 32.0 °F 22.1 °F 25.0 °F 75% 29.90 in 10.0 mi WNW 13.8 mph - N/A   Overcast
2:02 PM 30.2 °F 19.3 °F 24.8 °F 80% 29.85 in 9.0 mi NW 15.0 mph - N/A   Overcast
2:30 PM 30.2 °F 20.2 °F 24.8 °F 80% 29.86 in 1.8 mi WNW 12.7 mph - 0.00 in Snow Light Snow
2:34 PM 30.2 °F 20.2 °F 24.8 °F 80% 29.87 in 1.2 mi WNW 12.7 mph - 0.00 in Snow Light Snow
2:42 PM 30.2 °F 20.2 °F 24.8 °F 80% 29.87 in 1.5 mi WNW 12.7 mph - 0.00 in Snow Light Snow
2:54 PM 30.0 °F 19.1 °F 25.0 °F 82% 29.92 in 1.5 mi WNW 15.0 mph - 0.00 in Snow Light Snow
3:04 PM 30.2 °F 19.8 °F 24.8 °F 80% 29.88 in 1.5 mi WNW 13.8 mph - 0.00 in Snow Light Snow
3:13 PM 30.2 °F 19.3 °F 24.8 °F 80% 29.88 in 1.5 mi WNW 15.0 mph - 0.00 in Snow Light Snow
3:19 PM 30.2 °F 18.9 °F 24.8 °F 80% 29.89 in 3.0 mi WNW 16.1 mph - 0.00 in Snow Light Snow
3:28 PM 30.2 °F 18.5 °F 24.8 °F 80% 29.89 in 2.0 mi NW 17.3 mph - 0.00 in Snow Light Snow
3:39 PM 30.2 °F 18.9 °F 24.8 °F 80% 29.90 in 3.0 mi WNW 16.1 mph - 0.00 in Snow Light Snow
3:54 PM 30.0 °F 19.1 °F 24.1 °F 79% 29.95 in 6.0 mi WNW 15.0 mph - 0.00 in   Haze
4:54 PM 28.9 °F 17.3 °F 21.9 °F 75% 29.99 in 10.0 mi NW 16.1 mph - N/A   Mostly Cloudy
5:18 PM 28.4 °F 15.1 °F 21.2 °F 74% 29.94 in 10.0 mi NW 20.7 mph - N/A   Mostly Cloudy
5:54 PM 28.0 °F 15.7 °F 21.0 °F 75% 30.02 in 10.0 mi NW 17.3 mph - N/A   Overcast
6:43 PM 24.8 °F 9.6 °F 10.4 °F 54% 30.00 in 10.0 mi NNW 23.0 mph 32.2 mph N/A   Mostly Cloudy
6:54 PM 24.1 °F 9.4 °F 9.0 °F 53% 30.06 in 10.0 mi NNW 20.7 mph - N/A   Scattered Clouds
7:54 PM 21.9 °F 7.8 °F 6.1 °F 51% 30.09 in 10.0 mi NNW 17.3 mph - N/A   Clear
8:54 PM 19.9 °F 6.2 °F 6.1 °F 55% 30.12 in 10.0 mi NNW 15.0 mph - N/A   Clear
9:54 PM 19.0 °F 7.5 °F 6.1 °F 57% 30.15 in 10.0 mi NW 10.4 mph - N/A   Clear
10:54 PM 18.0 °F 5.4 °F 6.1 °F 60% 30.17 in 10.0 mi NNW 11.5 mph - N/A   Clear
11:54 PM 17.1 °F 3.6 °F 7.0 °F 65% 30.18 in 10.0 mi NW 12.7 mph - N/A   Clear